owner,sensor,date,latitude,longitude,vertical_datum,direction_of_sea_water_velocity,sea_water_speed,upward_sea_water_velocity,qcFlag 
TABS,ioos:station:wmo:42050:1,2016-02-01T00:00:00Z,28.8425,-94.2433,2.0,10.35382881,16.80360973,-99999.0,'11111222,11111222,99999999' 
TABS,ioos:station:wmo:42050:1,2016-02-01T00:30:00Z,28.8425,-94.2433,2.0,6.139011694,15.71008593,-99999.0,'11111222,11111222,99999999' 
TABS,ioos:station:wmo:42050:1,2016-02-01T01:00:00Z,28.8425,-94.2433,2.0,13.49591218,14.14045615,-99999.0,'11111222,11111222,99999999' 
TABS,ioos:station:wmo:42050:1,2016-02-01T01:30:00Z,28.8425,-94.2433,2.0,355.1433254,12.7558026,-99999.0,'11111222,11111222,99999999' 
TABS,ioos:station:wmo:42050:1,2016-02-01T02:00:00Z,28.8425,-94.2433,2.0,7.226798064,13.99114005,-99999.0,'11111222,11111222,99999999' 
TABS,ioos:station:wmo:42050:1,2016-02-01T02:30:00Z,28.8425,-94.2433,2.0,358.2867491,11.70523387,-99999.0,'11111222,11111222,99999999' 
TABS,ioos:station:wmo:42050:1,2016-02-01T03:00:00Z,28.8425,-94.2433,2.0,351.3179476,11.59284693,-99999.0,'11111222,11111222,99999999' 
TABS,ioos:station:wmo:42050:1,2016-02-01T03:30:00Z,28.8425,-94.2433,2.0,342.4683137,9.029424123,-99999.0,'11133222,11111222,99999999' 
TABS,ioos:station:wmo:42050:1,2016-02-01T04:00:00Z,28.8425,-94.2433,2.0,343.557762,8.549643267,-99999.0,'11133222,11111222,99999999' 
TABS,ioos:station:wmo:42050:1,2016-02-01T04:30:00Z,28.8425,-94.2433,2.0,320.2649572,9.401755155,-99999.0,'11133222,11111222,99999999' 
TABS,ioos:station:wmo:42050:1,2016-02-01T05:00:00Z,28.8425,-94.2433,2.0,313.3786803,7.745921507,-99999.0,'11133222,11111222,99999999' 
TABS,ioos:station:wmo:42050:1,2016-02-01T05:30:00Z,28.8425,-94.2433,2.0,313.2953172,8.793230351,-99999.0,'11133222,11111222,99999999' 
TABS,ioos:station:wmo:42050:1,2016-02-01T06:00:00Z,28.8425,-94.2433,2.0,310.3867716,8.966883517,-99999.0,'11133222,11111222,99999999' 
TABS,ioos:station:wmo:42050:1,2016-02-01T06:30:00Z,28.8425,-94.2433,2.0,306.3587769,10.30641063,-99999.0,'11111222,11111222,99999999' 
TABS,ioos:station:wmo:42050:1,2016-02-01T07:00:00Z,28.8425,-94.2433,2.0,298.8085627,9.711977142,-99999.0,'11133222,11111222,99999999' 
TABS,ioos:station:wmo:42050:1,2016-02-01T07:30:00Z,28.8425,-94.2433,2.0,300.4268857,10.42585728,-99999.0,'11111222,11111222,99999999' 
TABS,ioos:station:wmo:42050:1,2016-02-01T08:00:00Z,28.8425,-94.2433,2.0,303.7040808,11.62374294,-99999.0,'11111222,11111222,99999999' 
TABS,ioos:station:wmo:42050:1,2016-02-01T08:30:00Z,28.8425,-94.2433,2.0,305.1275877,12.49577929,-99999.0,'11111222,11111222,99999999' 
TABS,ioos:station:wmo:42050:1,2016-02-01T09:00:00Z,28.8425,-94.2433,2.0,314.3623059,12.70042519,-99999.0,'11111222,11111222,99999999' 
TABS,ioos:station:wmo:42050:1,2016-02-01T09:30:00Z,28.8425,-94.2433,2.0,316.1053738,13.93259488,-99999.0,'11111222,11111222,99999999' 
TABS,ioos:station:wmo:42050:1,2016-02-01T10:00:00Z,28.8425,-94.2433,2.0,330.036296,12.9741281,-99999.0,'11111222,11111222,99999999' 
TABS,ioos:station:wmo:42050:1,2016-02-01T10:30:00Z,28.8425,-94.2433,2.0,324.035711,13.41767491,-99999.0,'11111222,11111222,99999999' 
TABS,ioos:station:wmo:42050:1,2016-02-01T11:00:00Z,28.8425,-94.2433,2.0,330.4842684,14.59404331,-99999.0,'11111222,11111222,99999999' 
TABS,ioos:station:wmo:42050:1,2016-02-01T11:30:00Z,28.8425,-94.2433,2.0,328.3548057,13.83748532,-99999.0,'11111222,11111222,99999999' 
TABS,ioos:station:wmo:42050:1,2016-02-01T12:00:00Z,28.8425,-94.2433,2.0,323.1222221,14.01400014,-99999.0,'11111222,11111222,99999999' 
TABS,ioos:station:wmo:42050:1,2016-02-01T12:30:00Z,28.8425,-94.2433,2.0,322.1763355,14.77404819,-99999.0,'11111222,11111222,99999999' 
TABS,ioos:station:wmo:42050:1,2016-02-01T13:00:00Z,28.8425,-94.2433,2.0,326.412444,12.43639819,-99999.0,'11111222,11111222,99999999' 
TABS,ioos:station:wmo:42050:1,2016-02-01T13:30:00Z,28.8425,-94.2433,2.0,320.2671317,13.17244472,-99999.0,'11111222,11111222,99999999' 
TABS,ioos:station:wmo:42050:1,2016-02-01T14:00:00Z,28.8425,-94.2433,2.0,320.4561918,12.3454445,-99999.0,'11111222,11111222,99999999' 
TABS,ioos:station:wmo:42050:1,2016-02-01T14:30:00Z,28.8425,-94.2433,2.0,314.4141914,11.05972875,-99999.0,'11111222,11111222,99999999' 
TABS,ioos:station:wmo:42050:1,2016-02-01T15:00:00Z,28.8425,-94.2433,2.0,317.8242694,11.05135738,-99999.0,'11111222,11111222,99999999' 
TABS,ioos:station:wmo:42050:1,2016-02-01T15:30:00Z,28.8425,-94.2433,2.0,293.497006,11.86369673,-99999.0,'11111222,11111222,99999999' 
TABS,ioos:station:wmo:42050:1,2016-02-01T16:00:00Z,28.8425,-94.2433,2.0,278.0994833,13.06026416,-99999.0,'11111222,11111222,99999999' 
TABS,ioos:station:wmo:42050:1,2016-02-01T16:30:00Z,28.8425,-94.2433,2.0,277.0566796,10.33830257,-99999.0,'11111222,11111222,99999999' 
TABS,ioos:station:wmo:42050:1,2016-02-01T17:00:00Z,28.8425,-94.2433,2.0,281.6539093,10.79246496,-99999.0,'11111222,11111222,99999999' 
TABS,ioos:station:wmo:42050:1,2016-02-01T17:30:00Z,28.8425,-94.2433,2.0,276.646732,10.54083963,-99999.0,'11111222,11111222,99999999' 
TABS,ioos:station:wmo:42050:1,2016-02-01T18:00:00Z,28.8425,-94.2433,2.0,279.710673,10.25694886,-99999.0,'11111222,11111222,99999999' 
TABS,ioos:station:wmo:42050:1,2016-02-01T18:30:00Z,28.8425,-94.2433,2.0,263.8536951,12.04925309,-99999.0,'11111222,11111222,99999999' 
TABS,ioos:station:wmo:42050:1,2016-02-01T19:00:00Z,28.8425,-94.2433,2.0,271.7438861,11.17517338,-99999.0,'11111222,11111222,99999999' 
TABS,ioos:station:wmo:42050:1,2016-02-01T19:30:00Z,28.8425,-94.2433,2.0,255.8254177,12.08801059,-99999.0,'11111222,11111222,99999999' 
TABS,ioos:station:wmo:42050:1,2016-02-01T20:00:00Z,28.8425,-94.2433,2.0,257.5502754,10.94740609,-99999.0,'11111222,11111222,99999999' 
TABS,ioos:station:wmo:42050:1,2016-02-01T20:30:00Z,28.8425,-94.2433,2.0,256.277314,10.62321985,-99999.0,'11111222,11111222,99999999' 
TABS,ioos:station:wmo:42050:1,2016-02-01T21:00:00Z,28.8425,-94.2433,2.0,264.7864962,11.11597949,-99999.0,'11111222,11111222,99999999' 
TABS,ioos:station:wmo:42050:1,2016-02-01T21:30:00Z,28.8425,-94.2433,2.0,269.5917878,11.24028469,-99999.0,'11111222,11111222,99999999' 
TABS,ioos:station:wmo:42050:1,2016-02-01T22:00:00Z,28.8425,-94.2433,2.0,271.363048,10.51297294,-99999.0,'11111222,11111222,99999999' 
TABS,ioos:station:wmo:42050:1,2016-02-01T22:30:00Z,28.8425,-94.2433,2.0,263.9382674,10.8908861,-99999.0,'11111222,11111222,99999999' 
TABS,ioos:station:wmo:42050:1,2016-02-01T23:00:00Z,28.8425,-94.2433,2.0,273.8815596,7.38694118,-99999.0,'11133222,11111222,99999999' 
TABS,ioos:station:wmo:42050:1,2016-02-01T23:30:00Z,28.8425,-94.2433,2.0,248.1713086,3.953454186,-99999.0,'11133222,11111222,99999999' 
TABS,ioos:station:wmo:42050:1,2016-02-02T00:00:00Z,28.8425,-94.2433,2.0,296.0204024,7.522472998,-99999.0,'11133222,11111222,99999999' 
TABS,ioos:station:wmo:42050:1,2016-02-02T00:30:00Z,28.8425,-94.2433,2.0,320.9471648,9.554935897,-99999.0,'11133222,11111222,99999999' 
TABS,ioos:station:wmo:42050:1,2016-02-02T01:00:00Z,28.8425,-94.2433,2.0,350.4788914,7.979931077,-99999.0,'11133222,11111222,99999999' 
TABS,ioos:station:wmo:42050:1,2016-02-02T01:30:00Z,28.8425,-94.2433,2.0,6.311163855,10.82560391,-99999.0,'11111222,11111222,99999999' 
TABS,ioos:station:wmo:42050:1,2016-02-02T02:00:00Z,28.8425,-94.2433,2.0,356.6288723,13.77383752,-99999.0,'11111222,11111222,99999999' 
TABS,ioos:station:wmo:42050:1,2016-02-02T02:30:00Z,28.8425,-94.2433,2.0,345.4514194,15.72421381,-99999.0,'11111222,11111222,99999999' 
TABS,ioos:station:wmo:42050:1,2016-02-02T03:00:00Z,28.8425,-94.2433,2.0,351.7706232,26.0583384,-99999.0,'11111222,11111222,99999999' 
TABS,ioos:station:wmo:42050:1,2016-02-02T03:30:00Z,28.8425,-94.2433,2.0,350.9361087,32.88059154,-99999.0,'11111222,11111222,99999999' 
TABS,ioos:station:wmo:42050:1,2016-02-02T04:00:00Z,28.8425,-94.2433,2.0,350.9676317,39.23656585,-99999.0,'11111222,11111222,99999999' 
TABS,ioos:station:wmo:42050:1,2016-02-02T04:30:00Z,28.8425,-94.2433,2.0,346.6320476,39.31527184,-99999.0,'11111222,11111222,99999999' 
TABS,ioos:station:wmo:42050:1,2016-02-02T05:00:00Z,28.8425,-94.2433,2.0,351.9469423,37.97449671,-99999.0,'11111222,11111222,99999999' 
TABS,ioos:station:wmo:42050:1,2016-02-02T05:30:00Z,28.8425,-94.2433,2.0,349.280187,32.95514072,-99999.0,'11111222,11111222,99999999' 
TABS,ioos:station:wmo:42050:1,2016-02-02T06:00:00Z,28.8425,-94.2433,2.0,351.5918644,27.08109488,-99999.0,'11111222,11111222,99999999' 
TABS,ioos:station:wmo:42050:1,2016-02-02T06:30:00Z,28.8425,-94.2433,2.0,347.7052512,25.78131494,-99999.0,'11111222,11111222,99999999' 
TABS,ioos:station:wmo:42050:1,2016-02-02T07:00:00Z,28.8425,-94.2433,2.0,350.3766942,25.12355269,-99999.0,'11111222,11111222,99999999' 
TABS,ioos:station:wmo:42050:1,2016-02-02T07:30:00Z,28.8425,-94.2433,2.0,350.2676954,19.52095285,-99999.0,'11111222,11111222,99999999' 
TABS,ioos:station:wmo:42050:1,2016-02-02T08:00:00Z,28.8425,-94.2433,2.0,349.1347163,19.46903439,-99999.0,'11111222,11111222,99999999' 
TABS,ioos:station:wmo:42050:1,2016-02-02T08:30:00Z,28.8425,-94.2433,2.0,351.3944329,22.65506787,-99999.0,'11111222,11111222,99999999' 
TABS,ioos:station:wmo:42050:1,2016-02-02T09:00:00Z,28.8425,-94.2433,2.0,0.678598671,18.58130243,-99999.0,'11111222,11111222,99999999' 
TABS,ioos:station:wmo:42050:1,2016-02-02T09:30:00Z,28.8425,-94.2433,2.0,353.345801,20.5383641,-99999.0,'11111222,11111222,99999999' 
TABS,ioos:station:wmo:42050:1,2016-02-02T10:00:00Z,28.8425,-94.2433,2.0,348.5145874,19.18417056,-99999.0,'11111222,11111222,99999999' 
TABS,ioos:station:wmo:42050:1,2016-02-02T10:30:00Z,28.8425,-94.2433,2.0,346.2546333,17.21297476,-99999.0,'11111222,11111222,99999999' 
TABS,ioos:station:wmo:42050:1,2016-02-02T11:00:00Z,28.8425,-94.2433,2.0,345.346525,16.87903433,-99999.0,'11111222,11111222,99999999' 
TABS,ioos:station:wmo:42050:1,2016-02-02T11:30:00Z,28.8425,-94.2433,2.0,339.8662572,15.57157667,-99999.0,'11111222,11111222,99999999' 
TABS,ioos:station:wmo:42050:1,2016-02-02T12:00:00Z,28.8425,-94.2433,2.0,334.4983894,14.70244197,-99999.0,'11111222,11111222,99999999' 
TABS,ioos:station:wmo:42050:1,2016-02-02T12:30:00Z,28.8425,-94.2433,2.0,328.9477156,15.48977082,-99999.0,'11111222,11111222,99999999' 
TABS,ioos:station:wmo:42050:1,2016-02-02T13:00:00Z,28.8425,-94.2433,2.0,332.7739882,18.60085213,-99999.0,'11111222,11111222,99999999' 
TABS,ioos:station:wmo:42050:1,2016-02-02T13:30:00Z,28.8425,-94.2433,2.0,345.7246139,20.31738664,-99999.0,'11111222,11111222,99999999' 
TABS,ioos:station:wmo:42050:1,2016-02-02T14:00:00Z,28.8425,-94.2433,2.0,352.9614344,24.72635234,-99999.0,'11111222,11111222,99999999' 
TABS,ioos:station:wmo:42050:1,2016-02-02T14:30:00Z,28.8425,-94.2433,2.0,0.975361321,25.85374441,-99999.0,'11111222,11111222,99999999' 
TABS,ioos:station:wmo:42050:1,2016-02-02T15:00:00Z,28.8425,-94.2433,2.0,1.571062134,31.37178988,-99999.0,'11111222,11111222,99999999' 
TABS,ioos:station:wmo:42050:1,2016-02-02T15:30:00Z,28.8425,-94.2433,2.0,6.138635806,31.04801604,-99999.0,'11111222,11111222,99999999' 
TABS,ioos:station:wmo:42050:1,2016-02-02T16:00:00Z,28.8425,-94.2433,2.0,5.742959526,26.58341776,-99999.0,'11111222,11111222,99999999' 
TABS,ioos:station:wmo:42050:1,2016-02-02T16:30:00Z,28.8425,-94.2433,2.0,9.563725734,24.19628071,-99999.0,'11111222,11111222,99999999' 
TABS,ioos:station:wmo:42050:1,2016-02-02T17:00:00Z,28.8425,-94.2433,2.0,13.04767971,21.92605984,-99999.0,'11111222,11111222,99999999' 
TABS,ioos:station:wmo:42050:1,2016-02-02T17:30:00Z,28.8425,-94.2433,2.0,19.05077346,19.42383072,-99999.0,'11111222,11111222,99999999' 
TABS,ioos:station:wmo:42050:1,2016-02-02T18:00:00Z,28.8425,-94.2433,2.0,4.302211526,9.998169833,-99999.0,'11133222,11111222,99999999' 
TABS,ioos:station:wmo:42050:1,2016-02-02T18:30:00Z,28.8425,-94.2433,2.0,39.05859933,7.855730393,-99999.0,'11133222,11111222,99999999' 
TABS,ioos:station:wmo:42050:1,2016-02-02T19:00:00Z,28.8425,-94.2433,2.0,0.513292076,3.350134326,-99999.0,'11133222,11111222,99999999' 
TABS,ioos:station:wmo:42050:1,2016-02-02T19:30:00Z,28.8425,-94.2433,2.0,261.0391822,4.87954916,-99999.0,'11133222,11111222,99999999' 
TABS,ioos:station:wmo:42050:1,2016-02-02T20:00:00Z,28.8425,-94.2433,2.0,284.0741779,7.402188865,-99999.0,'11133222,11111222,99999999' 
TABS,ioos:station:wmo:42050:1,2016-02-02T20:30:00Z,28.8425,-94.2433,2.0,267.4778253,11.59122513,-99999.0,'11111222,11111222,99999999' 
TABS,ioos:station:wmo:42050:1,2016-02-02T21:00:00Z,28.8425,-94.2433,2.0,258.6992049,11.78854105,-99999.0,'11111222,11111222,99999999' 
TABS,ioos:station:wmo:42050:1,2016-02-02T21:30:00Z,28.8425,-94.2433,2.0,259.055385,11.06117534,-99999.0,'11111222,11111222,99999999' 
TABS,ioos:station:wmo:42050:1,2016-02-02T22:00:00Z,28.8425,-94.2433,2.0,238.6480534,13.93457929,-99999.0,'11111222,11111222,99999999' 
TABS,ioos:station:wmo:42050:1,2016-02-02T22:30:00Z,28.8425,-94.2433,2.0,248.051507,13.77863927,-99999.0,'11111222,11111222,99999999' 
TABS,ioos:station:wmo:42050:1,2016-02-02T23:00:00Z,28.8425,-94.2433,2.0,249.1522036,14.49924481,-99999.0,'11111222,11111222,99999999' 
TABS,ioos:station:wmo:42050:1,2016-02-02T23:30:00Z,28.8425,-94.2433,2.0,249.6047507,14.14681943,-99999.0,'11111222,11111222,99999999' 
TABS,ioos:station:wmo:42050:1,2016-02-03T00:00:00Z,28.8425,-94.2433,2.0,255.6529837,14.32678959,-99999.0,'11111222,11111222,99999999' 
TABS,ioos:station:wmo:42050:1,2016-02-03T00:30:00Z,28.8425,-94.2433,2.0,257.4298167,15.16344288,-99999.0,'11111222,11111222,99999999' 
TABS,ioos:station:wmo:42050:1,2016-02-03T01:00:00Z,28.8425,-94.2433,2.0,254.2021289,18.62340731,-99999.0,'11111222,11111222,99999999' 
TABS,ioos:station:wmo:42050:1,2016-02-03T01:30:00Z,28.8425,-94.2433,2.0,251.7965687,21.09572706,-99999.0,'11111222,11111222,99999999' 
TABS,ioos:station:wmo:42050:1,2016-02-03T02:00:00Z,28.8425,-94.2433,2.0,253.1436738,20.312698,-99999.0,'11111222,11111222,99999999' 
TABS,ioos:station:wmo:42050:1,2016-02-03T02:30:00Z,28.8425,-94.2433,2.0,249.4971654,22.52691945,-99999.0,'11111222,11111222,99999999' 
TABS,ioos:station:wmo:42050:1,2016-02-03T03:00:00Z,28.8425,-94.2433,2.0,265.7677134,42.14490479,-99999.0,'11111222,11111222,99999999' 
TABS,ioos:station:wmo:42050:1,2016-02-03T03:30:00Z,28.8425,-94.2433,2.0,269.2789171,49.29389922,-99999.0,'11111222,11111222,99999999' 
TABS,ioos:station:wmo:42050:1,2016-02-03T04:00:00Z,28.8425,-94.2433,2.0,275.5079795,52.51242234,-99999.0,'11111222,11111222,99999999' 
TABS,ioos:station:wmo:42050:1,2016-02-03T04:30:00Z,28.8425,-94.2433,2.0,279.1036179,52.46074723,-99999.0,'11111222,11111222,99999999' 
TABS,ioos:station:wmo:42050:1,2016-02-03T05:00:00Z,28.8425,-94.2433,2.0,278.0191065,54.55339128,-99999.0,'11111222,11111222,99999999' 
TABS,ioos:station:wmo:42050:1,2016-02-03T05:30:00Z,28.8425,-94.2433,2.0,276.8607142,54.50020367,-99999.0,'11111222,11111222,99999999' 
TABS,ioos:station:wmo:42050:1,2016-02-03T06:00:00Z,28.8425,-94.2433,2.0,275.8274281,51.41566785,-99999.0,'11111222,11111222,99999999' 
TABS,ioos:station:wmo:42050:1,2016-02-03T06:30:00Z,28.8425,-94.2433,2.0,276.3968022,54.03638034,-99999.0,'11111222,11111222,99999999' 
TABS,ioos:station:wmo:42050:1,2016-02-03T07:00:00Z,28.8425,-94.2433,2.0,282.8131699,56.68137084,-99999.0,'11111222,11111222,99999999' 
TABS,ioos:station:wmo:42050:1,2016-02-03T07:30:00Z,28.8425,-94.2433,2.0,281.6790624,54.24292396,-99999.0,'11111222,11111222,99999999' 
TABS,ioos:station:wmo:42050:1,2016-02-03T08:00:00Z,28.8425,-94.2433,2.0,281.306194,54.37515977,-99999.0,'11111222,11111222,99999999' 
TABS,ioos:station:wmo:42050:1,2016-02-03T08:30:00Z,28.8425,-94.2433,2.0,282.4611728,53.89966419,-99999.0,'11111222,11111222,99999999' 
TABS,ioos:station:wmo:42050:1,2016-02-03T09:00:00Z,28.8425,-94.2433,2.0,283.5657335,52.82361782,-99999.0,'11111222,11111222,99999999' 
TABS,ioos:station:wmo:42050:1,2016-02-03T09:30:00Z,28.8425,-94.2433,2.0,286.0708359,47.82906229,-99999.0,'11111222,11111222,99999999' 
TABS,ioos:station:wmo:42050:1,2016-02-03T10:00:00Z,28.8425,-94.2433,2.0,285.6148852,48.52068116,-99999.0,'11111222,11111222,99999999' 
TABS,ioos:station:wmo:42050:1,2016-02-03T10:30:00Z,28.8425,-94.2433,2.0,288.697184,42.20736073,-99999.0,'11111222,11111222,99999999' 
TABS,ioos:station:wmo:42050:1,2016-02-03T11:00:00Z,28.8425,-94.2433,2.0,276.8494891,39.66304703,-99999.0,'11111222,11111222,99999999' 
TABS,ioos:station:wmo:42050:1,2016-02-03T11:30:00Z,28.8425,-94.2433,2.0,270.8188745,40.60414265,-99999.0,'11111222,11111222,99999999' 
TABS,ioos:station:wmo:42050:1,2016-02-03T12:00:00Z,28.8425,-94.2433,2.0,260.4553317,39.08096723,-99999.0,'11111222,11111222,99999999' 
TABS,ioos:station:wmo:42050:1,2016-02-03T12:30:00Z,28.8425,-94.2433,2.0,257.9266609,44.03393805,-99999.0,'11111222,11111222,99999999' 
TABS,ioos:station:wmo:42050:1,2016-02-03T13:00:00Z,28.8425,-94.2433,2.0,249.8196937,48.49704424,-99999.0,'11111222,11111222,99999999' 
TABS,ioos:station:wmo:42050:1,2016-02-03T13:30:00Z,28.8425,-94.2433,2.0,247.5091997,53.12013554,-99999.0,'11111222,11111222,99999999' 
TABS,ioos:station:wmo:42050:1,2016-02-03T14:00:00Z,28.8425,-94.2433,2.0,246.8804712,59.67226575,-99999.0,'11111222,11111222,99999999' 
TABS,ioos:station:wmo:42050:1,2016-02-03T14:30:00Z,28.8425,-94.2433,2.0,247.8938762,58.381581,-99999.0,'11111222,11111222,99999999' 
TABS,ioos:station:wmo:42050:1,2016-02-03T15:00:00Z,28.8425,-94.2433,2.0,254.5115956,55.23581628,-99999.0,'11111222,11111222,99999999' 
TABS,ioos:station:wmo:42050:1,2016-02-03T15:30:00Z,28.8425,-94.2433,2.0,254.3166279,53.0862939,-99999.0,'11111222,11111222,99999999' 
TABS,ioos:station:wmo:42050:1,2016-02-03T16:00:00Z,28.8425,-94.2433,2.0,261.1511962,51.55354983,-99999.0,'11111222,11111222,99999999' 
TABS,ioos:station:wmo:42050:1,2016-02-03T16:30:00Z,28.8425,-94.2433,2.0,259.1835888,53.23574175,-99999.0,'11111222,11111222,99999999' 
TABS,ioos:station:wmo:42050:1,2016-02-03T17:00:00Z,28.8425,-94.2433,2.0,257.372392,48.6261185,-99999.0,'11111222,11111222,99999999' 
TABS,ioos:station:wmo:42050:1,2016-02-03T17:30:00Z,28.8425,-94.2433,2.0,255.4787594,45.30727535,-99999.0,'11111222,11111222,99999999' 
TABS,ioos:station:wmo:42050:1,2016-02-03T18:00:00Z,28.8425,-94.2433,2.0,251.4404197,49.57830574,-99999.0,'11111222,11111222,99999999' 
TABS,ioos:station:wmo:42050:1,2016-02-03T18:30:00Z,28.8425,-94.2433,2.0,249.5062377,54.58451246,-99999.0,'11111222,11111222,99999999' 
TABS,ioos:station:wmo:42050:1,2016-02-03T19:00:00Z,28.8425,-94.2433,2.0,249.9539665,53.21369842,-99999.0,'11111222,11111222,99999999' 
TABS,ioos:station:wmo:42050:1,2016-02-03T19:30:00Z,28.8425,-94.2433,2.0,250.4810109,59.85997327,-99999.0,'11111222,11111222,99999999' 
TABS,ioos:station:wmo:42050:1,2016-02-03T20:00:00Z,28.8425,-94.2433,2.0,245.3933903,56.39080865,-99999.0,'11111222,11111222,99999999' 
TABS,ioos:station:wmo:42050:1,2016-02-03T20:30:00Z,28.8425,-94.2433,2.0,245.2993709,52.9110291,-99999.0,'11111222,11111222,99999999' 
TABS,ioos:station:wmo:42050:1,2016-02-03T21:00:00Z,28.8425,-94.2433,2.0,243.9490152,47.81800498,-99999.0,'11111222,11111222,99999999' 
TABS,ioos:station:wmo:42050:1,2016-02-03T21:30:00Z,28.8425,-94.2433,2.0,243.4883719,42.87885843,-99999.0,'11111222,11111222,99999999' 
TABS,ioos:station:wmo:42050:1,2016-02-03T22:00:00Z,28.8425,-94.2433,2.0,238.6620219,40.47452779,-99999.0,'11111222,11111222,99999999' 
TABS,ioos:station:wmo:42050:1,2016-02-03T22:30:00Z,28.8425,-94.2433,2.0,238.6432901,42.29768906,-99999.0,'11111222,11111222,99999999' 
TABS,ioos:station:wmo:42050:1,2016-02-03T23:00:00Z,28.8425,-94.2433,2.0,238.6638341,38.82295326,-99999.0,'11111222,11111222,99999999' 
TABS,ioos:station:wmo:42050:1,2016-02-03T23:30:00Z,28.8425,-94.2433,2.0,236.2304418,40.15478552,-99999.0,'11111222,11111222,99999999' 
TABS,ioos:station:wmo:42050:1,2016-02-04T00:00:00Z,28.8425,-94.2433,2.0,238.6409392,37.56765763,-99999.0,'11111222,11111222,99999999' 
TABS,ioos:station:wmo:42050:1,2016-02-04T00:30:00Z,28.8425,-94.2433,2.0,237.1001419,34.57498084,-99999.0,'11111222,11111222,99999999' 
TABS,ioos:station:wmo:42050:1,2016-02-04T01:00:00Z,28.8425,-94.2433,2.0,240.2740759,29.44460732,-99999.0,'11111222,11111222,99999999' 
TABS,ioos:station:wmo:42050:1,2016-02-04T01:30:00Z,28.8425,-94.2433,2.0,239.3175822,29.65074873,-99999.0,'11111222,11111222,99999999' 
TABS,ioos:station:wmo:42050:1,2016-02-04T02:00:00Z,28.8425,-94.2433,2.0,229.5264811,45.60215017,-99999.0,'11111222,11111222,99999999' 
TABS,ioos:station:wmo:42050:1,2016-02-04T02:30:00Z,28.8425,-94.2433,2.0,229.9518532,39.9734712,-99999.0,'11111222,11111222,99999999' 
TABS,ioos:station:wmo:42050:1,2016-02-04T03:00:00Z,28.8425,-94.2433,2.0,224.9616773,42.63854829,-99999.0,'11111222,11111222,99999999' 
TABS,ioos:station:wmo:42050:1,2016-02-04T03:30:00Z,28.8425,-94.2433,2.0,225.4814665,42.88754248,-99999.0,'11111222,11111222,99999999' 
TABS,ioos:station:wmo:42050:1,2016-02-04T04:00:00Z,28.8425,-94.2433,2.0,224.1276141,42.74248472,-99999.0,'11111222,11111222,99999999' 
TABS,ioos:station:wmo:42050:1,2016-02-04T04:30:00Z,28.8425,-94.2433,2.0,227.4226396,39.64049066,-99999.0,'11111222,11111222,99999999' 
TABS,ioos:station:wmo:42050:1,2016-02-04T05:00:00Z,28.8425,-94.2433,2.0,220.0938625,44.4844175,-99999.0,'11111222,11111222,99999999' 
TABS,ioos:station:wmo:42050:1,2016-02-04T05:30:00Z,28.8425,-94.2433,2.0,220.9671374,42.43246399,-99999.0,'11111222,11111222,99999999' 
TABS,ioos:station:wmo:42050:1,2016-02-04T06:00:00Z,28.8425,-94.2433,2.0,223.4838959,44.64113014,-99999.0,'11111222,11111222,99999999' 
TABS,ioos:station:wmo:42050:1,2016-02-04T06:30:00Z,28.8425,-94.2433,2.0,222.900048,46.12725984,-99999.0,'11111222,11111222,99999999' 
TABS,ioos:station:wmo:42050:1,2016-02-04T07:00:00Z,28.8425,-94.2433,2.0,219.1332087,53.2695673,-99999.0,'11111222,11111222,99999999' 
TABS,ioos:station:wmo:42050:1,2016-02-04T07:30:00Z,28.8425,-94.2433,2.0,220.7142216,52.13933736,-99999.0,'11111222,11111222,99999999' 
TABS,ioos:station:wmo:42050:1,2016-02-04T08:00:00Z,28.8425,-94.2433,2.0,223.6892521,55.34558067,-99999.0,'11111222,11111222,99999999' 
TABS,ioos:station:wmo:42050:1,2016-02-04T08:30:00Z,28.8425,-94.2433,2.0,224.0253625,49.90066933,-99999.0,'11111222,11111222,99999999' 
TABS,ioos:station:wmo:42050:1,2016-02-04T09:00:00Z,28.8425,-94.2433,2.0,223.9630849,52.76587249,-99999.0,'11111222,11111222,99999999' 
TABS,ioos:station:wmo:42050:1,2016-02-04T09:30:00Z,28.8425,-94.2433,2.0,223.7603274,51.32674644,-99999.0,'11111222,11111222,99999999' 
TABS,ioos:station:wmo:42050:1,2016-02-04T10:00:00Z,28.8425,-94.2433,2.0,223.6468336,56.60553418,-99999.0,'11111222,11111222,99999999' 
TABS,ioos:station:wmo:42050:1,2016-02-04T10:30:00Z,28.8425,-94.2433,2.0,224.4740509,55.49607554,-99999.0,'11111222,11111222,99999999' 
TABS,ioos:station:wmo:42050:1,2016-02-04T11:00:00Z,28.8425,-94.2433,2.0,226.0259608,55.66530427,-99999.0,'11111222,11111222,99999999' 
TABS,ioos:station:wmo:42050:1,2016-02-04T11:30:00Z,28.8425,-94.2433,2.0,223.9103913,60.25638721,-99999.0,'11111222,11111222,99999999' 
TABS,ioos:station:wmo:42050:1,2016-02-04T12:00:00Z,28.8425,-94.2433,2.0,226.3070343,61.36455817,-99999.0,'11111222,11111222,99999999' 
TABS,ioos:station:wmo:42050:1,2016-02-04T12:30:00Z,28.8425,-94.2433,2.0,231.262822,58.07482759,-99999.0,'11111222,11111222,99999999' 
TABS,ioos:station:wmo:42050:1,2016-02-04T13:00:00Z,28.8425,-94.2433,2.0,235.492706,56.41597026,-99999.0,'11111222,11111222,99999999' 
TABS,ioos:station:wmo:42050:1,2016-02-04T13:30:00Z,28.8425,-94.2433,2.0,257.5660048,35.90204033,-99999.0,'11111222,11111222,99999999' 
TABS,ioos:station:wmo:42050:1,2016-02-04T14:00:00Z,28.8425,-94.2433,2.0,269.4878669,32.47129502,-99999.0,'11111222,11111222,99999999' 
TABS,ioos:station:wmo:42050:1,2016-02-04T14:30:00Z,28.8425,-94.2433,2.0,268.8825881,30.26575127,-99999.0,'11111222,11111222,99999999' 
TABS,ioos:station:wmo:42050:1,2016-02-04T15:00:00Z,28.8425,-94.2433,2.0,270.4437832,28.4308512,-99999.0,'11111222,11111222,99999999' 
TABS,ioos:station:wmo:42050:1,2016-02-04T15:30:00Z,28.8425,-94.2433,2.0,271.760072,28.98366781,-99999.0,'11111222,11111222,99999999' 
TABS,ioos:station:wmo:42050:1,2016-02-04T16:00:00Z,28.8425,-94.2433,2.0,278.6631178,26.62372063,-99999.0,'11111222,11111222,99999999' 